Time,TemperatureF,DewpointF,PressureIn,WindDirection,WindDirectionDegrees,WindSpeedMPH,WindSpeedGustMPH,Humidity,HourlyPrecipIn,Conditions,Clouds,dailyrainin,SoftwareType,DateUTC
2013-03-06 00:00:00,51.6,46.0,30.02,SE,138,11.0,16.0,80,0.00,,,0.00,,2013-03-06 08:00:00,
2013-03-06 00:10:00,51.8,46.0,30.02,SE,142,8.0,17.0,80,0.00,,,0.00,,2013-03-06 08:10:00,
2013-03-06 00:20:00,51.7,45.0,30.01,SE,144,12.0,17.0,79,0.00,,,0.00,,2013-03-06 08:20:00,
2013-03-06 00:30:00,51.6,45.0,30.02,SE,140,8.0,16.0,79,0.00,,,0.00,,2013-03-06 08:30:00,
2013-03-06 00:40:00,51.2,46.0,30.02,SE,132,9.0,11.0,81,0.00,,,0.00,,2013-03-06 08:40:00,
2013-03-06 00:50:00,50.9,46.0,30.02,SE,130,5.0,13.0,82,0.00,,,0.00,,2013-03-06 08:50:00,
2013-03-06 01:00:00,50.6,46.0,30.02,SE,134,6.0,13.0,84,0.00,,,0.00,,2013-03-06 09:00:00,
2013-03-06 01:10:00,50.3,46.0,30.02,SE,126,6.0,13.0,85,0.00,,,0.00,,2013-03-06 09:10:00,
2013-03-06 01:20:00,49.8,45.0,30.02,ESE,121,9.0,14.0,85,0.00,,,0.01,,2013-03-06 09:20:00,
2013-03-06 01:30:00,49.4,45.0,30.02,SE,125,6.0,18.0,86,0.00,,,0.01,,2013-03-06 09:30:00,
2013-03-06 01:40:00,49.1,46.0,30.02,ESE,122,11.0,14.0,88,0.00,,,0.01,,2013-03-06 09:40:00,
2013-03-06 01:50:00,49.6,46.0,30.01,SE,139,10.0,21.0,88,0.00,,,0.02,,2013-03-06 09:50:00,
2013-03-06 02:00:00,49.4,46.0,30.01,SE,140,12.0,24.0,89,0.05,,,0.03,,2013-03-06 10:00:00,
2013-03-06 02:10:00,49.2,46.0,30.01,SE,130,19.0,24.0,90,0.05,,,0.03,,2013-03-06 10:10:00,
2013-03-06 02:20:00,49.2,46.0,30.01,SE,133,13.0,20.0,90,0.00,,,0.03,,2013-03-06 10:20:00,
2013-03-06 02:30:00,49.2,47.0,30.01,SE,146,15.0,23.0,91,0.00,,,0.03,,2013-03-06 10:30:00,
2013-03-06 02:40:00,49.3,47.0,30.01,ESE,119,12.0,19.0,91,0.00,,,0.03,,2013-03-06 10:40:00,
2013-03-06 02:50:00,49.3,47.0,30.01,SE,138,8.0,20.0,91,0.00,,,0.04,,2013-03-06 10:50:00,
2013-03-06 03:00:00,48.8,46.0,30.01,ESE,117,9.0,19.0,91,0.00,,,0.04,,2013-03-06 11:00:00,
2013-03-06 03:10:00,48.6,46.0,30.00,ESE,123,10.0,18.0,91,0.00,,,0.04,,2013-03-06 11:10:00,
2013-03-06 03:20:00,48.6,46.0,30.01,SE,131,14.0,16.0,91,0.00,,,0.05,,2013-03-06 11:20:00,
2013-03-06 03:30:00,49.0,47.0,30.01,SE,144,13.0,20.0,92,0.00,,,0.05,,2013-03-06 11:30:00,
2013-03-06 03:40:00,49.2,47.0,30.00,SE,127,12.0,25.0,92,0.00,,,0.05,,2013-03-06 11:40:00,
2013-03-06 03:50:00,49.2,47.0,30.00,ESE,117,12.0,26.0,92,0.00,,,0.05,,2013-03-06 11:50:00,
2013-03-06 04:00:00,49.4,47.0,30.00,SE,138,15.0,24.0,92,0.00,,,0.05,,2013-03-06 12:00:00,
2013-03-06 04:10:00,49.4,47.0,30.00,SE,132,10.0,23.0,92,0.00,,,0.05,,2013-03-06 12:10:00,
2013-03-06 04:20:00,49.2,47.0,30.00,SSE,148,17.0,23.0,92,0.00,,,0.05,,2013-03-06 12:20:00,
2013-03-06 04:30:00,49.4,47.0,30.00,SSE,149,21.0,22.0,92,0.00,,,0.05,,2013-03-06 12:30:00,
2013-03-06 04:40:00,49.6,47.0,30.00,SE,140,14.0,23.0,92,0.00,,,0.05,,2013-03-06 12:40:00,
2013-03-06 04:50:00,49.4,47.0,30.01,SE,140,16.0,20.0,93,0.00,,,0.05,,2013-03-06 12:50:00,
2013-03-06 05:00:00,49.4,47.0,30.00,SSE,156,12.0,20.0,93,0.00,,,0.06,,2013-03-06 13:00:00,
2013-03-06 05:10:00,49.2,47.0,30.00,ESE,118,16.0,21.0,93,0.20,,,0.09,,2013-03-06 13:10:00,
2013-03-06 05:20:00,49.3,47.0,30.00,SE,142,7.0,18.0,93,0.08,,,0.10,,2013-03-06 13:20:00,
2013-03-06 05:30:00,49.4,47.0,30.01,SE,144,18.0,22.0,93,0.07,,,0.11,,2013-03-06 13:30:00,
2013-03-06 05:40:00,49.2,47.0,30.01,ESE,115,4.0,25.0,93,0.04,,,0.11,,2013-03-06 13:40:00,
2013-03-06 05:50:00,49.2,47.0,30.01,SSE,153,7.0,18.0,93,0.00,,,0.11,,2013-03-06 13:50:00,
2013-03-06 06:00:00,49.4,47.0,30.01,SE,146,13.0,20.0,93,0.00,,,0.12,,2013-03-06 14:00:00,
2013-03-06 06:10:00,49.4,48.0,30.01,SE,138,13.0,21.0,94,0.04,,,0.13,,2013-03-06 14:10:00,
2013-03-06 06:20:00,49.4,48.0,30.02,SSE,147,6.0,19.0,94,0.09,,,0.14,,2013-03-06 14:20:00,
2013-03-06 06:30:00,49.4,48.0,30.02,SSE,147,13.0,19.0,94,0.07,,,0.15,,2013-03-06 14:30:00,
2013-03-06 06:40:00,49.5,48.0,30.02,SSE,148,12.0,18.0,94,0.00,,,0.15,,2013-03-06 14:40:00,
2013-03-06 06:50:00,49.5,48.0,30.02,SSE,159,14.0,21.0,94,0.00,,,0.16,,2013-03-06 14:50:00,
2013-03-06 07:00:00,49.5,48.0,30.03,South,169,6.0,19.0,94,0.21,,,0.19,,2013-03-06 15:00:00,
2013-03-06 07:11:00,49.7,48.0,30.04,South,176,7.0,7.0,94,0.09,,,0.20,,2013-03-06 15:11:00,
2013-03-06 07:20:00,49.8,48.0,30.04,South,184,5.0,14.0,94,0.04,,,0.20,,2013-03-06 15:20:00,
2013-03-06 07:30:00,50.0,48.0,30.04,SSE,156,6.0,15.0,94,0.00,,,0.21,,2013-03-06 15:30:00,
2013-03-06 07:40:00,50.1,48.0,30.04,South,175,10.0,14.0,94,0.00,,,0.21,,2013-03-06 15:40:00,
2013-03-06 07:50:00,50.1,48.0,30.04,SE,142,7.0,12.0,94,0.00,,,0.21,,2013-03-06 15:50:00,
2013-03-06 08:00:00,50.3,49.0,30.04,SE,144,11.0,14.0,94,0.00,,,0.22,,2013-03-06 16:00:00,
2013-03-06 08:10:00,50.8,49.0,30.05,SSE,165,7.0,11.0,94,0.10,,,0.24,,2013-03-06 16:10:00,
2013-03-06 08:20:00,50.4,49.0,30.05,SSE,164,6.0,15.0,94,0.10,,,0.26,,2013-03-06 16:20:00,
2013-03-06 08:30:00,50.8,49.0,30.06,SSE,152,8.0,12.0,95,0.04,,,0.26,,2013-03-06 16:30:00,
2013-03-06 08:40:00,51.4,50.0,30.06,SSE,162,8.0,11.0,95,0.00,,,0.26,,2013-03-06 16:40:00,
2013-03-06 08:50:00,51.4,50.0,30.06,South,171,12.0,13.0,94,0.00,,,0.26,,2013-03-06 16:50:00,
2013-03-06 09:00:00,51.4,50.0,30.06,South,170,11.0,17.0,94,0.00,,,0.26,,2013-03-06 17:00:00,
2013-03-06 09:10:00,51.1,49.0,30.07,SSW,209,5.0,5.0,94,0.00,,,0.27,,2013-03-06 17:10:00,
2013-03-06 09:20:00,51.2,50.0,30.08,SSW,192,7.0,7.0,95,0.25,,,0.30,,2013-03-06 17:20:00,
2013-03-06 09:30:00,51.5,50.0,30.08,SSW,205,9.0,11.0,95,0.08,,,0.32,,2013-03-06 17:30:00,
2013-03-06 09:40:00,51.9,51.0,30.08,SSW,210,6.0,13.0,95,0.00,,,0.32,,2013-03-06 17:40:00,
2013-03-06 09:50:00,52.5,51.0,30.08,SSE,163,5.0,9.0,95,0.00,,,0.32,,2013-03-06 17:50:00,
2013-03-06 10:00:00,52.8,51.0,30.08,South,183,4.0,9.0,95,0.00,,,0.33,,2013-03-06 18:00:00,
2013-03-06 10:10:00,52.9,51.0,30.08,SSW,192,5.0,13.0,94,0.00,,,0.33,,2013-03-06 18:10:00,
2013-03-06 10:20:00,52.7,51.0,30.08,South,189,5.0,12.0,94,0.00,,,0.33,,2013-03-06 18:20:00,
2013-03-06 10:30:00,53.1,51.0,30.07,SSE,165,3.0,9.0,94,0.00,,,0.33,,2013-03-06 18:30:00,
2013-03-06 10:40:00,53.0,51.0,30.08,South,176,8.0,12.0,94,0.00,,,0.33,,2013-03-06 18:40:00,
2013-03-06 10:50:00,53.2,52.0,30.08,SW,223,7.0,14.0,94,0.00,,,0.33,,2013-03-06 18:50:00,
2013-03-06 11:00:00,53.3,52.0,30.08,SSW,196,7.0,12.0,94,0.00,,,0.33,,2013-03-06 19:00:00,
2013-03-06 11:10:00,53.7,52.0,30.09,SSW,192,2.0,10.0,94,0.00,,,0.33,,2013-03-06 19:10:00,
2013-03-06 11:20:00,54.2,53.0,30.08,SSW,195,5.0,8.0,94,0.00,,,0.33,,2013-03-06 19:20:00,
2013-03-06 11:30:00,54.1,52.0,30.08,South,186,4.0,12.0,93,0.00,,,0.33,,2013-03-06 19:30:00,
2013-03-06 11:40:00,54.4,52.0,30.08,South,177,4.0,14.0,93,0.00,,,0.33,,2013-03-06 19:40:00,
2013-03-06 11:50:00,54.4,52.0,30.08,SSE,155,7.0,11.0,93,0.00,,,0.33,,2013-03-06 19:50:00,
2013-03-06 12:00:00,54.9,53.0,30.07,South,188,5.0,9.0,93,0.00,,,0.33,,2013-03-06 20:00:00,
2013-03-06 12:10:00,54.9,53.0,30.07,South,178,7.0,10.0,93,0.00,,,0.33,,2013-03-06 20:10:00,
2013-03-06 12:20:00,54.8,53.0,30.07,South,175,3.0,9.0,92,0.00,,,0.33,,2013-03-06 20:20:00,
2013-03-06 12:30:00,55.1,53.0,30.07,SSW,198,4.0,10.0,92,0.00,,,0.33,,2013-03-06 20:30:00,
2013-03-06 12:40:00,56.2,54.0,30.06,South,171,4.0,8.0,92,0.00,,,0.33,,2013-03-06 20:40:00,
2013-03-06 12:50:00,55.8,53.0,30.06,South,171,4.0,10.0,91,0.00,,,0.33,,2013-03-06 20:50:00,
2013-03-06 13:00:00,55.5,53.0,30.06,SSW,208,6.0,9.0,91,0.00,,,0.33,,2013-03-06 21:00:00,
2013-03-06 13:10:00,55.0,53.0,30.05,SSW,204,7.0,8.0,92,0.00,,,0.33,,2013-03-06 21:10:00,
2013-03-06 13:20:00,55.2,53.0,30.05,SW,216,9.0,10.0,91,0.00,,,0.33,,2013-03-06 21:20:00,
2013-03-06 13:30:00,54.3,52.0,30.05,SSW,200,7.0,9.0,91,0.00,,,0.33,,2013-03-06 21:30:00,
2013-03-06 13:40:00,54.2,52.0,30.04,South,184,3.0,8.0,91,0.00,,,0.33,,2013-03-06 21:40:00,
2013-03-06 13:50:00,55.8,54.0,30.03,SSW,208,5.0,7.0,92,0.00,,,0.33,,2013-03-06 21:50:00,
2013-03-06 14:00:00,55.0,52.0,30.03,SSW,198,9.0,9.0,90,0.00,,,0.33,,2013-03-06 22:00:00,
2013-03-06 14:10:00,54.6,52.0,30.03,SW,223,6.0,9.0,90,0.00,,,0.33,,2013-03-06 22:10:00,
2013-03-06 14:20:00,55.0,52.0,30.04,WSW,244,5.0,11.0,91,0.00,,,0.33,,2013-03-06 22:20:00,
2013-03-06 14:30:00,54.6,52.0,30.03,SW,217,8.0,9.0,91,0.00,,,0.33,,2013-03-06 22:30:00,
2013-03-06 14:40:00,54.4,52.0,30.03,SW,227,7.0,10.0,91,0.00,,,0.33,,2013-03-06 22:40:00,
2013-03-06 14:50:00,53.9,51.0,30.03,SW,223,9.0,10.0,91,0.00,,,0.33,,2013-03-06 22:50:00,
2013-03-06 15:00:00,54.3,52.0,30.04,WSW,240,8.0,10.0,91,0.00,,,0.33,,2013-03-06 23:00:00,
2013-03-06 15:10:00,54.2,51.0,30.04,West,267,5.0,9.0,90,0.00,,,0.33,,2013-03-06 23:10:00,
2013-03-06 15:20:00,54.9,52.0,30.04,WSW,258,4.0,9.0,90,0.00,,,0.33,,2013-03-06 23:20:00,
2013-03-06 15:30:00,55.0,52.0,30.04,WSW,246,4.0,10.0,90,0.00,,,0.33,,2013-03-06 23:30:00,
2013-03-06 15:40:00,54.6,51.0,30.04,WSW,257,7.0,9.0,89,0.00,,,0.33,,2013-03-06 23:40:00,
2013-03-06 15:50:00,54.6,51.0,30.03,West,279,5.0,9.0,89,0.00,,,0.33,,2013-03-06 23:50:00,
2013-03-06 16:00:00,54.7,51.0,30.02,West,274,5.0,7.0,88,0.00,,,0.33,,2013-03-07 00:00:00,
2013-03-06 16:10:00,54.4,50.0,30.02,West,271,4.0,7.0,86,0.00,,,0.33,,2013-03-07 00:10:00,
2013-03-06 16:20:00,54.4,50.0,30.02,West,279,3.0,7.0,84,0.00,,,0.33,,2013-03-07 00:20:00,
2013-03-06 16:30:00,54.5,49.0,30.02,WNW,282,3.0,8.0,82,0.00,,,0.33,,2013-03-07 00:30:00,
2013-03-06 16:40:00,54.5,48.0,30.02,WNW,284,6.0,8.0,80,0.00,,,0.33,,2013-03-07 00:40:00,
2013-03-06 16:50:00,54.5,49.0,30.02,WNW,284,4.0,7.0,81,0.00,,,0.33,,2013-03-07 00:50:00,
2013-03-06 17:00:00,54.7,49.0,30.02,WNW,288,4.0,8.0,80,0.00,,,0.33,,2013-03-07 01:00:00,
2013-03-06 17:10:00,53.8,48.0,30.01,WNW,283,4.0,8.0,80,0.00,,,0.33,,2013-03-07 01:10:00,
2013-03-06 17:20:00,53.3,47.0,30.01,WNW,296,2.0,7.0,80,0.00,,,0.33,,2013-03-07 01:20:00,
2013-03-06 17:30:00,52.7,47.0,30.01,NW,312,3.0,4.0,80,0.00,,,0.33,,2013-03-07 01:30:00,
2013-03-06 17:40:00,51.9,46.0,30.01,NW,312,1.0,3.0,81,0.00,,,0.33,,2013-03-07 01:40:00,
2013-03-06 17:50:00,51.5,46.0,30.01,NW,313,1.0,3.0,81,0.00,,,0.33,,2013-03-07 01:50:00,
2013-03-06 18:00:00,51.4,46.0,30.01,NW,319,2.0,3.0,82,0.00,,,0.33,,2013-03-07 02:00:00,
2013-03-06 18:10:00,51.3,46.0,30.01,NW,319,1.0,3.0,83,0.00,,,0.33,,2013-03-07 02:10:00,
2013-03-06 18:20:00,51.0,46.0,30.01,NNW,334,2.0,4.0,84,0.00,,,0.33,,2013-03-07 02:20:00,
2013-03-06 18:30:00,50.9,47.0,30.01,NNW,344,5.0,6.0,85,0.00,,,0.33,,2013-03-07 02:30:00,
2013-03-06 18:40:00,50.8,46.0,30.00,NNW,338,3.0,5.0,85,0.00,,,0.33,,2013-03-07 02:40:00,
2013-03-06 18:50:00,50.6,46.0,30.01,NW,319,4.0,6.0,84,0.00,,,0.33,,2013-03-07 02:50:00,
2013-03-06 19:00:00,50.4,46.0,30.01,NW,323,4.0,5.0,85,0.00,,,0.33,,2013-03-07 03:00:00,
2013-03-06 19:10:00,50.4,46.0,30.01,NNW,348,5.0,5.0,85,0.00,,,0.33,,2013-03-07 03:10:00,
2013-03-06 19:20:00,50.5,46.0,30.00,NNE,18,4.0,5.0,85,0.00,,,0.33,,2013-03-07 03:20:00,
2013-03-06 19:30:00,50.3,46.0,30.00,NNE,19,3.0,5.0,85,0.00,,,0.33,,2013-03-07 03:30:00,
2013-03-06 19:40:00,49.9,45.0,30.01,North,355,5.0,5.0,84,0.00,,,0.33,,2013-03-07 03:40:00,
2013-03-06 19:50:00,49.9,45.0,30.01,North,355,3.0,5.0,84,0.00,,,0.33,,2013-03-07 03:50:00,
2013-03-06 20:00:00,50.0,45.0,30.00,NNE,19,5.0,7.0,84,0.00,,,0.33,,2013-03-07 04:00:00,
2013-03-06 20:10:00,49.9,45.0,30.00,NNE,24,5.0,7.0,84,0.00,,,0.33,,2013-03-07 04:10:00,
2013-03-06 20:20:00,49.6,45.0,30.00,NNE,26,6.0,6.0,84,0.00,,,0.33,,2013-03-07 04:20:00,
2013-03-06 20:30:00,49.6,45.0,30.00,NNE,22,6.0,6.0,84,0.00,,,0.33,,2013-03-07 04:30:00,
2013-03-06 20:40:00,49.6,45.0,30.00,North,360,3.0,5.0,84,0.00,,,0.33,,2013-03-07 04:40:00,
2013-03-06 20:50:00,49.8,45.0,30.00,North,360,2.0,4.0,84,0.00,,,0.33,,2013-03-07 04:50:00,
2013-03-06 21:00:00,49.7,45.0,30.00,North,360,3.0,4.0,84,0.00,,,0.33,,2013-03-07 05:00:00,
2013-03-06 21:10:00,49.6,45.0,30.01,North,360,5.0,5.0,84,0.00,,,0.33,,2013-03-07 05:10:00,
2013-03-06 21:20:00,49.5,45.0,30.01,North,360,4.0,5.0,84,0.00,,,0.33,,2013-03-07 05:20:00,
2013-03-06 21:30:00,49.4,45.0,30.01,North,360,3.0,5.0,84,0.00,,,0.33,,2013-03-07 05:30:00,
2013-03-06 21:40:00,49.3,45.0,30.01,North,360,3.0,5.0,85,0.00,,,0.33,,2013-03-07 05:40:00,
2013-03-06 21:50:00,49.2,45.0,30.01,North,360,3.0,4.0,85,0.00,,,0.33,,2013-03-07 05:50:00,
2013-03-06 22:00:00,49.0,45.0,30.01,North,360,3.0,5.0,85,0.00,,,0.33,,2013-03-07 06:00:00,
2013-03-06 22:10:00,49.3,45.0,30.00,North,360,4.0,5.0,85,0.00,,,0.33,,2013-03-07 06:10:00,
2013-03-06 22:20:00,49.1,44.0,30.00,North,9,3.0,5.0,84,0.00,,,0.33,,2013-03-07 06:20:00,
2013-03-06 22:30:00,48.8,45.0,30.00,North,9,3.0,5.0,85,0.00,,,0.33,,2013-03-07 06:30:00,
2013-03-06 22:40:00,48.9,45.0,30.00,North,9,4.0,4.0,85,0.00,,,0.33,,2013-03-07 06:40:00,
2013-03-06 22:50:00,48.3,44.0,30.00,NNE,17,4.0,5.0,85,0.00,,,0.33,,2013-03-07 06:50:00,
2013-03-06 23:00:00,48.4,44.0,30.00,NNE,17,2.0,4.0,86,0.00,,,0.33,,2013-03-07 07:00:00,
2013-03-06 23:10:00,48.6,45.0,29.99,NNE,17,3.0,4.0,86,0.00,,,0.33,,2013-03-07 07:10:00,
2013-03-06 23:20:00,48.7,45.0,29.99,NNE,17,2.0,3.0,86,0.00,,,0.33,,2013-03-07 07:20:00,
2013-03-06 23:30:00,48.4,44.0,29.99,NNE,16,2.0,4.0,85,0.00,,,0.33,,2013-03-07 07:30:00,
2013-03-06 23:40:00,48.4,44.0,29.99,NNE,16,4.0,4.0,86,0.00,,,0.33,,2013-03-07 07:40:00,
2013-03-06 23:50:00,48.4,44.0,29.99,NNE,13,3.0,4.0,86,0.00,,,0.33,,2013-03-07 07:50:00,